Regional Weather Roundup
Issued by NWS Burlington, VT

Home | Current Version | Previous Version | Text Only | Print | Product List | Glossary On
Versions: 1 2 3 4 5 6 7 8 9 10 11 12 13 14 15 16 17 18 19 20 21 22 23 24 25 26 27 28 29 30 31 32 33 34 35 36 37 38 39 40 41 42 43 44 45 46 47 48 49 50
000
ASUS41 KBTV 020230
RWRBTV
VERMONT REGIONAL WEATHER ROUNDUP
NATIONAL WEATHER SERVICE BURLINGTON VT
1000 PM EDT TUE SEP 01 2015

NOTE: "FAIR" INDICATES FEW OR NO CLOUDS BELOW 12,000 FEET WITH NO
SIGNIFICANT WEATHER AND/OR OBSTRUCTIONS TO VISIBILITY.

* THESE REPORTS ARE NOT UNDER NWS QUALITY CONTROL AND/OR DO NOT
  REPORT WEATHER SUCH AS PRECIPITATION AND FOG.

VTZ001>019-020300-
_____VERMONT_____


CITY           SKY/WX    TMP DP  RH WIND       PRES   REMARKS
BURLINGTON     CLEAR     69  61  75 SE6       30.02R
MONTPELIER     CLEAR     62  58  86 S3        30.10R
MORRISVILLE    CLEAR     64  59  83 CALM      30.06R
ST. JOHNSBURY*   N/A     64  60  87 MISG      30.03S
LYNDONVILLE*   FAIR      61  58  91 CALM      30.08S
MIDDLEBURY*    FAIR      67  57  69 SE3       30.02F
RUTLAND*       CLEAR     64  55  72 SE8       30.07F
SPRINGFIELD    CLEAR     65  62  90 CALM      30.06R
HIGHGATE*      FAIR      67  63  85 SE5       30.00F
NEWPORT*       FAIR      62  62  98 CALM      30.05S
BENNINGTON     CLEAR     62  58  86 CALM      30.07R
GALLUP MILLS*    N/A     57 N/A N/A MISG        N/A
MT. MANSFIELD*   N/A     63 N/A N/A NW18        N/A

_____LAKE CHAMPLAIN_____


CITY           SKY/WX    TMP DP  RH WIND       PRES   REMARKS
COLCHESTER RF*   N/A     75  68  78 NW7         N/A
DIAMOND ISL*     N/A    N/A N/A N/A NE6         N/A

$$

NYZ007-026>031-035-052-083-020300-
_____NORTHERN NEW YORK_____


CITY           SKY/WX    TMP DP  RH WIND       PRES   REMARKS
PLATTSBURGH    CLEAR     64  62  93 CALM      30.01S
SARANAC LAKE   CLEAR     63  61  93 CALM      30.08S
MASSENA        CLEAR     68  65  90 SW5       30.02S
OGDENSBURG*    CLEAR     66  64  94 CALM      30.02F FOG
POTSDAM*       CLEAR     66  66 100 S5        30.03F FOG
STARK FALLS*     N/A     70 N/A N/A S5          N/A
WATERTOWN      CLEAR     64  63  96 CALM      30.03S FOG
FT DRUM        CLEAR     69  64  85 S8        30.04S
ALBANY         CLEAR     73  64  73 CALM      30.04R
GLENS FALLS    CLEAR     68  63  84 CALM      30.03R

$$
NHZ002-005-011-020300-
_____NEW HAMPSHIRE_____


CITY           SKY/WX    TMP DP  RH WIND       PRES   REMARKS
LEBANON        CLEAR     63  59  87 CALM      30.04S
KEENE          CLEAR     63  57  82 CALM      30.06S
MT WASHINGTON  PTCLDY    59  19  21 W16         N/A
PLYMOUTH       FAIR      60  59  96 CALM      30.04S
WHITEFIELD     CLEAR     59  55  87 CALM      30.07S

$$

_____REGIONAL QUEBEC LOCATIONS_____


CITY           SKY/WX    TMP DP  RH WIND       PRES   REMARKS
MONTREAL       PTCLDY    73  66  78 SW9       29.98F
QUEBEC CITY    PTCLDY    64  59  82 W3        29.95F
SHERBROOKE     CLEAR     59  57  94 E3        30.03S

_____REGIONAL ONTARIO LOCATIONS_____


CITY           SKY/WX    TMP DP  RH WIND       PRES   REMARKS
OTTAWA         CLEAR     70  66  88 S7        30.00S

______KEY______
VSB  - VISIBILITY IN MILES
WCI  - WIND CHILL INDEX
HX   - HEAT INDEX
$$
NNNN



USA.gov is the U.S. government's official web portal to all federal, state and local government web resources and services.